HORYU-4

Last updated on Thu Nov 21 2024 00:03:39 GMT+0000 (Coordinated Universal Time)

1 41340U 16012D 24325.51365142 .00026031 00000+0 10240-2 0 9995 2 41340 31.0026 31.4782 0009923 133.1476 226.9997 15.24425842481957
UTC large
Height (km)
Speed (km/s)
/
Latitude / Longitude
Inclination (degrees)
Orbital Period (minutes)
Azimuth
Elevation
Range (km)
Doppler Factor

Next 0 passes for location: London (51.5072 / 0.1276)

Sorry there are no passes over London.